EHI
0 0 0 0 0 0 0 0 0 0 0 0 0 0 0 0 0 0 0 0 0 0 0 0 0 0 0 0 1 3 3 1 0 0 0 0 0 0 0 0 0 0 0
0 0 0 0 0 0 0 0 0 0 0 0 0 0 0 0 0 0 0 0 0 0 0 0 0 0 0 0 1 2 1 0 0 0 0 0 0 0 0 0 0 0 0
0 0 0 0 0 0 0 0 0 0 0 0 0 0 0 0 0 0 0 0 0 0 0 0 0 0 0 0 0 0 0 0 0 0 0 0 0 0 0 0 0 0 0
1 0 0 0 0 0 0 0 0 0 0 0 0 0 0 0 0 0 0 0 0 0 0 0 0 0 0 0 0 0 0 0 0 0 0 0 0 0 0 0 0 0 0
2 1 0 0 0 0 0 0 0 0 0 0 0 0 0 0 0 0 0 0 0 0 0 0 0 0 0 0 0 0 0 0 0 0 0 0 0 0 0 0 0 0 0
2 1 0 0 0 0 0 0 0 0 0 0 0 0 0 0 0 0 0 0 0 0 0 0 0 0 0 0 0 0 0 0 0 0 0 0 0 0 0 0 0 0 0
2 1 0 0 0 0 0 0 0 0 0 0 0 0 0 0 0 0 0 0 0 0 0 0 0 0 0 0 0 0 0 0 0 0 0 0 0 0 0 0 0 0 0
1 0 0 0 0 0 0 0 0 0 0 0 0 0 0 0 0 0 0 0 0 0 0 0 0 0 0 0 0 0 0 0 0 0 0 0 0 0 0 0 0 0 0
0 0 0 0 0 0 0 0 0 0 0 0 0 0 0 0 0 0 0 0 0 0 0 0 0 0 0 0 0 0 0 0 0 0 0 0 0 0 0 0 0 0 0
0 0 0 0 0 0 0 0 0 0 0 0 0 0 0 0 0 0 0 0 0 0 0 0 0 0 0 0 0 0 0 0 0 0 0 0 0 0 0 0 0 0 0
0 0 0 0 0 0 0 0 0 0 0 0 0 0 0 0 0 0 0 0 0 0 0 0 0 0 0 0 0 0 0 0 0 0 0 0 0 0 0 0 0 0 0
0 0 0 0 0 0 0 0 0 0 0 0 0 0 0 0 0 0 0 0 0 0 0 0 0 0 0 0 0 0 0 0 0 0 0 0 0 0 0 0 0 0 0
0 0 0 0 0 0 0 0 0 0 0 0 0 0 0 0 0 0 0 0 0 0 0 0 0 0 0 0 0 0 0 0 0 0 0 0 0 0 0 0 0 0 0
0 0 0 0 0 0 0 0 0 0 0 0 0 0 0 0 0 0 0 0 0 0 0 0 0 0 0 0 0 0 0 0 0 0 0 0 0 0 0 0 0 0 0
0 0 0 0 0 0 0 0 0 0 0 0 0 0 0 0 0 0 0 0 0 0 0 0 0 0 0 0 0 0 0 0 0 0 0 0 0 0 0 0 0 0 0
0 0 0 0 0 0 0 0 0 0 0 0 0 0 0 0 0 0 0 0 0 0 0 0 0 0 0 0 0 0 0 0 0 0 0 0 0 0 0 0 0 0 0
0 0 0 0 0 0 0 0 0 0 0 0 0 0 0 0 0 0 0 0 0 0 0 0 0 0 0 0 0 0 0 0 0 0 0 0 0 0 0 0 0 0 0
0 0 0 0 0 0 0 0 0 0 0 0 0 0 0 0 0 0 0 0 0 0 0 0 0 0 0 0 0 0 0 0 0 0 0 0 0 0 0 0 0 0 0
0 0 0 0 0 0 0 0 0 0 0 0 0 0 0 0 0 0 0 0 0 0 0 0 0 0 0 0 0 0 0 0 0 0 0 0 0 0 0 0 0 0 0
0 0 0 0 0 0 0 0 0 0 0 0 0 0 0 0 0 0 0 0 0 0 0 0 0 0 0 0 0 0 0 0 0 0 0 0 0 0 0 0 0 0 0
0 0 0 0 0 0 0 0 0 0 0 0 0 0 0 0 0 0 0 0 0 0 0 0 0 0 0 0 0 0 0 0 0 0 0 0 0 0 0 0 0 0 0
0 0 0 0 0 0 0 0 0 0 0 0 0 0 0 0 0 0 0 0 0 0 0 0 0 0 0 0 0 0 0 0 0 0 0 0 0 0 0 0 0 0 0
0 0 0 0 0 0 0 0 0 0 0 0 0 0 0 0 0 0 0 0 0 0 0 0 0 0 0 0 0 0 0 0 0 0 0 0 0 0 0 0 0 0 0
0 0 0 0 0 0 0 0 0 0 0 0 0 0 0 0 0 0 0 0 0 0 0 0 0 0 0 0 0 0 0 0 0 0 0 0 0 0 0 0 0 0 0
0 0 0 0 0 0 0 0 0 0 0 0 0 0 0 0 0 0 0 0 0 0 0 0 0 0 0 0 0 0 0 0 0 0 0 0 0 0 0 0 0 0 0
0 0 0 0 0 0 0 0 0 0 0 0 0 0 0 0 0 0 0 0 0 0 0 0 0 0 0 0 0 0 0 0 0 0 0 0 0 0 0 0 0 0 0
Wind_Speed
2 2 1 1 2 2 2 2 2 3 3 4 4 5 4 4 4 4 3 9 9 9 10 10 9 8 9 9 9 9 8 8 8 8 8 8 8 8 8 8 7 6 6
2 2 1 1 2 2 2 2 2 2 2 3 4 4 4 4 4 4 4 5 9 9 9 9 9 9 9 9 8 8 8 8 7 7 7 7 7 7 7 7 7 6 7
2 2 2 1 1 1 2 3 3 3 3 3 3 3 3 3 3 4 4 3 4 8 9 8 8 8 8 8 8 8 8 8 7 7 6 6 6 6 6 6 6 7 8
2 2 2 1 1 2 2 2 3 3 3 3 2 2 2 2 3 3 3 3 3 3 6 8 7 7 7 7 7 7 7 7 7 7 7 6 6 5 5 5 6 6 7
3 2 2 1 2 2 2 2 2 2 2 2 2 2 2 2 1 2 3 3 3 3 3 5 7 7 6 5 6 6 7 7 7 6 6 6 6 6 5 5 5 5 6
3 3 2 2 2 2 2 2 2 2 1 1 2 3 2 1 1 1 2 2 2 2 2 3 3 4 7 6 6 6 6 7 6 6 6 5 5 5 5 5 5 5 5
2 3 2 2 2 2 1 2 2 2 2 2 3 3 3 3 2 1 1 1 2 1 2 2 2 2 2 5 5 5 5 5 5 6 6 5 5 5 5 5 5 5 5
2 2 3 2 2 2 2 2 2 2 1 2 2 2 2 4 3 2 1 1 1 1 1 1 1 1 1 1 3 5 4 4 4 4 4 4 5 5 5 5 5 5 5
2 2 2 2 2 2 2 1 1 2 1 1 1 3 2 1 2 2 2 1 1 1 1 0 0 1 1 1 1 3 3 3 2 2 2 3 3 4 3 4 3 3 4
1 2 2 2 2 2 2 1 1 2 3 1 1 1 2 3 2 1 2 2 2 1 1 1 0 0 0 0 1 2 3 3 2 1 1 1 1 2 2 2 2 2 3
1 1 2 2 2 1 1 1 2 1 2 2 1 0 1 1 1 2 1 3 3 2 2 1 1 1 1 1 1 1 1 2 2 2 1 1 1 1 1 1 1 2 2
1 1 1 2 1 1 1 1 1 1 1 2 1 1 2 1 1 1 1 1 2 3 2 1 1 1 1 1 2 1 1 1 2 2 2 1 1 0 1 1 1 1 1
0 1 0 1 1 1 1 2 1 1 1 2 1 1 1 1 2 2 2 1 1 2 2 2 2 1 1 1 2 3 2 2 1 1 1 1 1 1 1 0 0 0 0
2 2 1 1 1 1 1 1 1 0 1 1 1 1 1 1 1 2 2 2 0 2 2 3 2 2 1 2 3 3 2 3 3 2 2 2 1 1 1 1 1 1 1
1 1 1 1 1 1 1 2 1 0 1 0 1 1 1 1 1 1 2 3 3 1 3 3 2 3 2 2 3 2 2 5 5 4 3 3 2 2 1 1 1 2 2
1 1 1 1 1 1 1 2 1 1 1 0 0 0 0 1 1 1 1 2 2 3 3 3 3 3 2 2 4 3 4 5 6 5 4 4 3 3 2 2 1 2 2
1 2 2 2 2 2 1 2 1 1 1 0 0 0 1 1 1 1 1 1 1 2 2 3 2 2 2 2 2 2 2 3 3 5 5 5 5 4 4 3 3 2 2
1 2 2 2 2 2 2 2 2 2 2 2 1 1 2 1 1 1 1 1 1 1 2 3 3 2 3 2 2 2 2 2 2 5 5 5 5 4 4 4 3 3 2
1 1 1 1 2 2 2 3 3 3 3 3 2 2 2 2 2 2 2 2 2 1 1 2 3 2 2 1 1 2 1 1 2 2 3 4 4 4 4 4 4 4 3
2 1 1 1 2 2 2 2 2 2 2 2 3 3 3 3 3 3 2 2 2 1 1 1 2 2 2 1 0 1 1 1 2 1 2 2 3 4 4 5 5 5 4
2 2 1 1 1 1 2 2 2 2 2 2 2 3 3 3 4 3 2 3 2 2 1 1 2 1 2 1 1 1 2 1 2 1 1 1 1 2 2 4 5 6 5
2 1 1 2 2 2 2 2 2 2 2 2 3 3 4 3 4 5 5 3 3 3 3 3 3 3 4 3 2 2 1 1 2 1 1 2 1 2 2 2 3 4 5
2 2 2 2 2 3 3 3 4 3 2 3 3 3 3 3 3 3 5 5 5 5 5 4 4 5 4 4 3 2 3 3 3 2 1 2 1 2 2 3 4 3 3
2 2 3 3 2 3 4 4 4 3 3 4 4 4 4 4 3 3 3 3 3 4 5 4 5 6 5 4 5 4 4 2 2 1 1 2 2 2 2 2 4 4 3
2 3 2 3 2 3 4 4 3 2 2 3 3 3 3 3 4 3 2 2 3 4 4 4 4 4 5 4 2 2 2 2 2 2 2 2 1 1 1 2 3 3 2
2 2 2 2 3 3 4 4 3 2 2 3 2 3 4 4 4 3 2 3 3 4 2 2 3 3 3 3 3 3 4 3 2 2 2 2 1 1 1 2 1 1 2
Wind_Direction
87 71 47 43 38 39 45 44 49 55 57 59 69 78 72 64 57 48 46 60 64 68 73 77 77 77 78 75 72 71 74 78 77 77 75 74 73 68 67 65 63 63 64
106 96 74 56 45 47 47 58 66 71 65 70 68 69 73 69 63 56 46 48 57 63 68 72 72 73 79 77 75 73 72 74 77 78 78 74 70 68 67 66 62 63 73
116 107 87 53 42 58 59 56 56 62 70 73 69 68 70 69 70 60 49 41 41 54 63 69 70 69 72 74 73 72 71 70 70 71 72 71 69 68 68 68 65 72 78
108 98 83 57 51 66 61 67 59 59 61 68 66 58 63 68 70 66 58 51 41 41 52 63 69 67 69 74 74 74 71 71 69 66 64 64 66 69 68 68 75 77 84
98 98 86 65 72 66 58 77 70 81 73 62 71 60 52 63 68 77 66 57 48 45 38 51 60 61 60 69 73 74 72 69 65 63 63 61 63 67 66 71 75 77 86
89 93 86 59 76 79 55 65 84 73 88 78 72 52 25 26 47 67 71 64 53 53 50 47 43 47 54 57 68 73 71 67 65 63 63 61 64 71 73 73 73 75 84
95 101 83 64 69 85 86 83 89 83 56 68 69 32 7 18 40 36 45 59 56 53 51 48 52 40 33 46 56 66 67 68 66 63 60 61 64 74 74 75 75 78 84
102 100 101 89 79 83 67 60 88 89 58 77 105 88 19 354 357 15 24 43 22 38 52 54 57 55 38 26 31 45 47 62 64 66 62 63 67 74 75 71 71 74 82
94 96 100 102 90 88 103 98 108 113 127 8 92 122 129 222 309 333 344 359 351 8 352 351 98 66 59 37 7 12 32 42 61 76 71 65 66 71 76 69 58 69 85
81 89 98 102 104 94 96 99 98 118 131 137 343 46 136 154 146 310 323 331 324 314 305 313 238 194 157 98 8 17 24 21 19 40 64 67 74 70 67 66 57 80 94
27 62 93 100 101 99 104 93 79 94 128 145 150 119 76 71 104 141 275 314 325 305 293 271 254 237 219 191 246 299 4 1 353 336 340 19 46 60 57 57 59 78 96
12 19 84 92 101 100 109 117 103 105 125 135 135 130 138 145 167 147 191 259 289 297 298 279 246 229 236 235 239 239 261 320 337 343 344 341 337 0 3 44 67 73 85
278 265 132 118 112 117 132 118 107 106 132 149 160 170 176 183 168 157 153 215 276 294 309 296 264 244 244 239 247 230 231 250 283 312 315 309 305 291 315 269 212 221 298
219 222 197 183 174 146 131 122 109 114 94 143 177 164 177 230 175 162 163 153 334 311 304 278 288 256 262 240 242 233 243 239 246 260 262 270 270 283 281 260 262 261 274
216 211 221 200 199 187 173 146 126 128 96 106 227 188 182 237 206 189 169 161 159 220 277 267 272 267 265 248 240 232 248 247 240 241 242 240 235 246 260 265 285 272 273
213 201 235 235 212 201 189 163 163 170 116 329 277 229 239 248 238 217 188 178 167 177 235 260 254 261 256 255 244 236 241 249 243 239 239 236 228 228 240 240 262 266 266
207 200 220 228 218 217 201 170 194 177 158 207 326 258 255 236 212 232 191 176 181 164 230 277 275 271 245 252 261 249 241 236 248 244 240 239 236 230 231 242 248 257 260
217 212 209 212 221 223 206 187 214 214 196 207 233 240 268 251 227 227 197 203 211 198 193 262 285 281 257 244 242 246 248 237 242 250 239 238 236 233 233 242 246 253 259
218 222 207 202 219 218 205 203 203 217 218 220 219 216 244 242 237 244 224 218 226 237 205 225 262 273 274 275 286 275 271 280 255 255 246 246 244 240 240 243 244 246 247
206 220 226 215 221 218 209 205 200 202 227 240 234 227 228 232 234 231 225 225 227 232 235 240 260 270 272 272 174 269 301 292 282 277 269 258 258 257 252 253 249 244 241
227 219 222 236 243 229 225 206 201 205 218 245 254 248 246 254 267 249 235 218 212 217 225 237 252 269 266 271 244 229 237 281 284 269 274 274 273 281 273 267 259 249 241
278 249 240 241 251 267 272 233 209 209 226 235 252 261 262 250 274 278 264 239 206 205 217 222 239 240 245 238 238 225 215 217 274 263 209 271 241 260 267 265 268 248 238
283 272 255 251 256 267 263 247 232 220 226 236 244 254 272 277 272 261 261 263 255 250 229 212 225 237 234 226 210 223 217 217 233 233 197 254 247 255 258 265 259 244 236
261 262 255 247 251 275 279 268 250 235 233 235 235 234 244 259 262 267 264 262 262 262 250 231 225 235 239 226 209 210 211 222 266 260 191 226 238 244 266 270 265 245 249
253 253 248 246 249 276 289 281 269 239 240 250 248 246 246 250 265 281 272 257 273 282 285 272 267 265 266 254 207 156 172 188 251 255 217 205 232 255 272 266 270 258 253
257 264 269 262 248 259 280 288 284 237 242 255 259 257 265 267 271 265 243 234 246 261 273 309 313 314 294 269 233 199 196 202 219 241 219 193 201 162 278 269 258 269 258